Vorticity
2 5 5 11 14 4 7 9 -3 -9 -4 -2 0 24 33 24 12 12 23 7 5 5 5 4 6 8 3 4 11 13 13 9 2 2 3 12 8 11 8 8 9 10 8 6
8 14 23 22 18 12 16 21 16 17 15 52 36 11 12 9 10 9 10 7 2 3 3 3 3 2 7 4 -1 3 1 -7 2 25 11 10 10 15 11 8 9 9 9 11
14 10 5 51 54 31 25 26 29 16 13 -0 14 15 16 13 12 11 7 7 4 3 3 1 3 2 7 5 1 2 6 8 25 23 19 15 15 14 17 12 10 9 10 11
-9 12 37 33 31 13 -10 -2 7 16 15 16 13 14 13 4 5 7 9 6 5 3 5 3 3 7 8 6 10 17 18 21 20 19 18 18 14 17 19 19 17 12 9 10
-8 17 -29 8 64 45 40 16 18 13 8 6 6 3 -4 6 2 0 -3 -1 1 4 4 2 4 13 11 11 17 14 13 15 14 13 16 16 20 19 18 18 17 20 20 12
23 -2 -5 -2 -12 -21 -6 -1 8 14 10 10 -0 8 -4 3 4 9 6 5 7 6 8 14 15 20 21 22 16 16 14 11 14 16 14 14 13 12 13 12 15 18 14 14
4 -5 14 5 -1 4 36 21 6 -6 -28 -9 7 -1 -6 6 6 -3 -7 3 10 13 14 15 24 22 15 15 15 14 13 13 14 12 8 9 13 12 14 13 10 13 18 18
40 17 31 14 43 10 1 -1 -20 -12 0 20 21 16 7 15 9 12 18 20 24 25 23 16 18 21 17 16 15 13 13 11 12 14 17 13 4 14 6 15 17 14 14 20
-14 -28 -57 -44 -23 -3 -8 -9 -9 39 30 8 7 10 13 11 13 24 18 17 11 11 19 17 10 11 10 14 11 8 7 6 6 6 7 17 13 8 16 8 12 10 18 14
16 22 17 1 3 5 1 -3 14 5 -5 1 13 5 3 30 5 14 15 14 14 8 11 13 10 7 7 11 17 15 12 17 12 2 10 3 8 12 12 10 8 19 6 19
14 21 18 10 9 13 20 18 16 18 19 14 11 15 20 13 21 12 10 8 11 9 5 5 2 2 1 -0 4 7 9 13 13 18 8 -0 10 1 8 7 10 6 16 9
4 19 27 23 18 17 13 16 18 27 24 22 16 38 11 5 7 4 5 6 7 6 5 5 5 4 2 5 9 8 8 8 10 10 10 20 3 16 2 8 10 8 11 14
26 5 -1 24 26 14 10 -2 32 26 44 29 7 2 2 3 3 4 5 5 3 4 4 4 4 4 1 7 6 5 6 6 7 13 14 11 18 9 13 -1 5 12 7 13
-1 11 13 25 36 28 28 57 7 6 1 -0 0 1 -1 -0 6 7 7 6 2 9 11 10 12 16 13 12 9 9 7 8 10 11 12 13 13 16 12 3 -0 9 7 12
7 9 5 6 6 -2 6 8 3 4 0 2 5 7 9 8 8 10 12 13 12 13 16 21 19 15 18 16 14 12 9 14 18 20 16 9 14 18 13 12 4 6 7 9
9 11 11 -0 19 -6 -19 3 8 -9 3 6 10 14 13 13 9 8 2 6 10 15 20 22 21 16 12 11 7 8 12 13 17 18 16 12 12 15 14 14 9 6 7 10
1 10 -6 -8 -5 -3 -0 15 16 6 2 -1 4 5 12 5 12 8 9 7 7 10 17 13 9 10 11 8 6 5 16 17 20 16 13 13 13 16 14 14 11 10 6 15
7 2 2 3 3 8 16 16 12 11 10 16 13 13 14 16 14 12 12 11 10 11 8 -1 12 8 7 9 6 9 18 16 15 12 8 12 12 20 15 12 10 7 8 18
5 2 8 18 14 12 12 14 13 14 13 13 16 12 11 14 16 15 16 13 17 10 16 10 12 12 6 4 9 13 18 13 15 14 12 15 18 21 15 10 7 6 15 23
15 15 13 18 20 21 22 23 25 21 17 15 17 10 11 14 17 16 18 19 21 22 17 12 15 10 1 7 12 16 20 13 13 14 20 19 22 20 11 7 8 15 20 22
17 11 16 9 18 16 12 7 9 17 25 22 20 17 17 18 6 4 6 7 11 10 9 10 6 4 9 13 16 22 20 14 20 21 21 21 17 13 10 11 17 20 22 20
19 16 12 20 14 6 4 4 9 5 6 8 10 13 12 7 4 5 8 11 10 8 7 7 8 12 14 17 25 22 19 22 18 12 14 19 15 10 14 21 24 24 23 25
13 11 9 6 4 3 3 7 8 8 8 8 7 9 10 9 8 10 13 15 12 9 5 9 18 17 20 29 22 20 15 5 26 24 14 18 19 25 25 26 27 24 18 17
7 10 10 10 11 11 11 12 14 20 22 22 19 17 13 12 13 10 8 10 12 12 15 18 16 25 25 20 20 -1 28 22 14 15 38 29 26 24 25 19 17 15 18 21
11 22 26 27 27 30 31 25 16 15 20 20 22 23 20 19 15 14 16 16 17 19 18 20 27 23 16 17 9 21 12 16 21 36 24 26 25 23 21 21 21 22 23 28
13 12 20 25 24 24 24 20 18 15 15 16 16 19 19 20 22 24 23 21 21 22 25 23 22 20 2 23 16 18 18 22 27 32 21 15 18 21 22 23 30 34 19 9
21 25 20 19 21 19 18 17 18 16 14 14 14 18 22 21 20 22 24 23 23 22 21 18 20 -1 22 16 19 15 15 16 14 12 15 22 26 26 28 18 8 7 7 5
Height
3102 3101 3099 3094 3094 3095 3090 3084 3083 3057 3065 3065 3068 3065 3061 3059 3058 3056 3054 3053 3053 3050 3047 3044 3041 3038 3035 3032 3029 3025 3021 3018 3016 3013 3011 3008 3005 3002 2999 2997 2993 2991 2989 2988
3089 3091 3089 3080 3081 3077 3074 3069 3065 3061 3052 3060 3056 3056 3055 3053 3052 3051 3049 3048 3045 3042 3039 3035 3031 3028 3025 3021 3017 3014 3011 3007 3005 3000 2996 2994 2991 2988 2986 2984 2981 2978 2976 2974
3082 3082 3079 3069 3067 3066 3063 3060 3059 3056 3055 3052 3051 3050 3048 3047 3046 3044 3041 3039 3036 3034 3030 3027 3024 3020 3016 3012 3007 3003 2997 2993 2989 2985 2981 2978 2975 2973 2971 2968 2965 2964 2963 2961
3081 3082 3075 3062 3060 3060 3059 3057 3054 3053 3050 3048 3045 3044 3043 3041 3039 3037 3034 3030 3028 3026 3023 3018 3014 3010 3004 2999 2993 2989 2984 2979 2976 2972 2968 2964 2960 2958 2956 2953 2951 2950 2949 2948
3079 3073 3061 3058 3060 3057 3054 3051 3049 3049 3047 3044 3040 3037 3037 3034 3032 3029 3026 3023 3019 3016 3011 3005 3001 2997 2991 2987 2981 2977 2971 2967 2964 2960 2956 2953 2949 2946 2943 2940 2938 2936 2935 2935
3073 3070 3060 3055 3055 3054 3051 3047 3043 3041 3039 3035 3032 3028 3028 3026 3023 3020 3017 3013 3008 3004 2999 2994 2991 2986 2981 2976 2971 2967 2961 2957 2954 2951 2947 2942 2939 2936 2933 2929 2926 2924 2923 2922
3063 3061 3052 3048 3048 3047 3047 3046 3036 3033 3031 3028 3024 3023 3019 3015 3013 3010 3004 3001 2997 2992 2986 2982 2980 2976 2970 2966 2962 2957 2952 2948 2946 2942 2938 2935 2930 2927 2922 2919 2916 2913 2911 2909
3057 3055 3048 3045 3043 3042 3037 3031 3028 3023 3020 3017 3014 3011 3009 3005 3001 2997 2993 2990 2986 2981 2977 2974 2970 2965 2961 2957 2952 2947 2944 2940 2937 2933 2930 2925 2921 2918 2914 2909 2905 2902 2898 2896
3054 3043 3042 3039 3036 3033 3027 3021 3017 3013 3009 3007 3004 3001 2998 2994 2991 2987 2982 2978 2975 2971 2968 2966 2963 2958 2953 2949 2944 2939 2935 2932 2929 2925 2922 2917 2913 2909 2905 2901 2896 2892 2887 2884
3041 3031 3031 3028 3026 3023 3017 3011 3007 3003 2999 2996 2992 2990 2987 2983 2981 2977 2974 2971 2967 2964 2961 2958 2955 2951 2946 2941 2936 2931 2927 2923 2919 2915 2912 2909 2905 2901 2897 2893 2888 2882 2877 2873
3022 3021 3017 3013 3011 3007 3002 2999 2995 2991 2987 2983 2981 2979 2976 2974 2971 2969 2966 2964 2960 2957 2953 2949 2946 2942 2938 2933 2927 2922 2918 2914 2909 2905 2901 2898 2895 2891 2888 2884 2879 2874 2869 2863
3012 3011 3007 2999 2997 2995 2989 2985 2983 2978 2974 2973 2971 2969 2968 2967 2965 2962 2958 2955 2951 2948 2943 2940 2936 2932 2927 2922 2916 2911 2907 2903 2899 2894 2890 2887 2883 2880 2878 2874 2871 2867 2862 2855
3006 3003 2998 2992 2986 2984 2979 2976 2973 2970 2967 2965 2965 2964 2962 2959 2957 2953 2950 2946 2943 2938 2933 2929 2924 2920 2917 2911 2905 2900 2895 2891 2887 2884 2880 2875 2871 2868 2864 2863 2859 2856 2852 2848
3001 2997 2992 2986 2980 2976 2972 2970 2966 2965 2964 2962 2960 2957 2955 2951 2948 2945 2941 2938 2933 2927 2922 2917 2911 2907 2906 2899 2893 2888 2884 2880 2875 2871 2867 2864 2860 2857 2854 2850 2846 2843 2841 2838
2994 2990 2985 2980 2976 2972 2970 2966 2964 2961 2959 2956 2953 2950 2946 2942 2938 2934 2930 2925 2920 2914 2908 2903 2898 2896 2892 2886 2881 2877 2872 2867 2863 2858 2854 2851 2848 2845 2842 2839 2836 2832 2829 2827
2986 2982 2978 2975 2971 2968 2965 2962 2957 2953 2951 2947 2943 2940 2935 2931 2926 2922 2918 2914 2907 2901 2897 2893 2888 2885 2880 2876 2871 2867 2862 2856 2850 2845 2841 2838 2836 2832 2829 2828 2825 2822 2818 2815
2979 2975 2972 2967 2963 2958 2955 2951 2948 2943 2938 2935 2931 2927 2922 2918 2913 2909 2906 2903 2896 2891 2887 2882 2877 2875 2870 2866 2861 2855 2849 2843 2839 2834 2830 2827 2823 2820 2818 2816 2814 2811 2808 2806
2973 2968 2964 2958 2952 2947 2942 2939 2935 2931 2926 2922 2918 2914 2909 2904 2900 2896 2892 2888 2883 2880 2877 2873 2868 2863 2859 2856 2850 2843 2837 2831 2827 2823 2819 2815 2811 2808 2806 2804 2803 2799 2797 2795
2964 2957 2953 2948 2943 2936 2931 2926 2923 2918 2914 2910 2906 2901 2897 2893 2888 2883 2879 2875 2871 2867 2865 2861 2858 2853 2849 2844 2838 2830 2825 2820 2815 2811 2807 2803 2799 2797 2795 2793 2791 2790 2787 2784
2952 2947 2942 2936 2930 2925 2919 2915 2910 2905 2902 2897 2893 2889 2885 2881 2877 2872 2868 2862 2860 2856 2851 2849 2846 2842 2837 2832 2826 2819 2814 2809 2804 2799 2795 2791 2788 2786 2785 2783 2781 2779 2777 2776
2940 2935 2929 2924 2918 2914 2910 2905 2899 2894 2889 2886 2881 2877 2873 2869 2867 2863 2857 2853 2852 2847 2842 2839 2835 2830 2825 2819 2813 2807 2802 2797 2792 2788 2784 2781 2779 2777 2776 2774 2772 2770 2769 2768
2927 2922 2917 2912 2907 2902 2899 2894 2889 2884 2879 2875 2871 2867 2862 2858 2855 2851 2849 2844 2839 2837 2833 2828 2824 2819 2813 2807 2801 2796 2792 2787 2783 2779 2775 2772 2770 2768 2767 2765 2763 2762 2762 2762
2915 2910 2905 2900 2894 2889 2884 2881 2876 2871 2865 2862 2858 2855 2851 2847 2843 2838 2833 2834 2829 2826 2821 2817 2813 2807 2802 2797 2793 2788 2784 2780 2775 2770 2767 2764 2761 2760 2759 2757 2757 2757 2758 2759
2903 2897 2891 2886 2880 2874 2868 2865 2860 2856 2851 2847 2844 2841 2837 2833 2831 2829 2825 2820 2817 2813 2810 2807 2803 2799 2795 2791 2787 2783 2779 2774 2769 2764 2760 2757 2756 2754 2754 2754 2755 2755 2756 2758
2889 2882 2876 2870 2863 2858 2853 2848 2843 2840 2836 2832 2830 2827 2825 2822 2817 2815 2812 2809 2807 2804 2801 2799 2796 2793 2790 2787 2784 2779 2776 2771 2766 2761 2758 2756 2754 2754 2754 2755 2756 2757 2759 2761
2874 2867 2861 2856 2850 2845 2840 2836 2831 2828 2825 2821 2819 2817 2814 2811 2808 2805 2803 2801 2798 2796 2795 2793 2792 2790 2788 2785 2782 2779 2776 2772 2767 2763 2761 2759 2758 2758 2759 2760 2761 2763 2766 2768
2861 2854 2848 2842 2839 2834 2830 2825 2821 2818 2816 2813 2809 2808 2805 2802 2800 2797 2796 2794 2792 2792 2791 2790 2789 2788 2786 2784 2782 2780 2778 2775 2773 2770 2768 2766 2765 2765 2767 2769 2770 2772 2773 2775